Hourly Weather Roundup
Issued by NWS Central Illinois

Home | Current Version | Previous Version | Text Only | Print | Product List | Glossary On
Versions: 1 2 3 4 5 6 7 8 9 10 11 12 13 14 15 16 17 18 19 20 21 22 23 24 25 26 27 28 29 30 31 32 33 34 35 36 37 38 39 40 41 42 43 44 45 46 47 48 49 50
184
NZUS43 KILX 160910
HWRILX

Area Weather Roundup
National Weather Service Lincoln IL
400 AM CDT SUN MAY 16 2021

NOTE:  "FAIR" indicates few or no clouds below 12,000 feet, with
       no sigificant weather and/or obstructions to visibility.


CITY           SKY/WX    TMP DP  RH WIND       PRES   REMARKS
Bloomington    CLOUDY    53  48  83 S6        30.17R
Champaign      CLOUDY    55  50  83 SE5       30.17R
Danville       CLOUDY    55  47  74 CALM      30.18R
Decatur        CLOUDY    55  49  80 CALM      30.16S
Effingham      CLOUDY    55  48  76 CALM      30.18R
Flora          CLOUDY    57  50  77 CALM      30.17R
Galesburg      CLOUDY    51  47  87 CALM      30.16R
Jacksonville   CLOUDY    56  46  68 CALM      30.15R
Lacon          CLEAR     48  46  91 SE3       30.15R
Lawrenceville  CLOUDY    59  50  72 E3        30.17S
Litchfield     CLOUDY    55  45  68 SE3       30.16S
$$


CITY           SKY/WX    TMP DP  RH WIND       PRES   REMARKS
Lincoln        CLOUDY    56  45  64 CALM      30.16R
Macomb         CLOUDY    54  51  90 CALM      30.18R
Mattoon        CLOUDY    56  48  74 SE5       30.16R
Mt Carmel AP   CLOUDY    58  49  72 SE3       30.17S
Olney-Noble AP CLOUDY    57  47  69 CALM      30.18R
Paris AP       CLOUDY    54  51  91 CALM      30.19R
Peoria         CLOUDY    54  48  80 S3        30.15S
Pontiac        CLOUDY    55  52  92 CALM      30.17S
Rantoul        CLOUDY    54  49  83 CALM      30.17R
Robinson       CLOUDY    55  51  86 E3        30.19R
Springfield    CLOUDY    57  46  66 SE3       30.15S
Taylorville    CLOUDY    55  45  67 SE3       30.15F
$$

...REGIONAL REPORTS...


CITY           SKY/WX    TMP DP  RH WIND       PRES   REMARKS
Chicago O`Hare CLOUDY    56  49  77 CALM      30.15R
Kankakee       CLOUDY    55  48  77 CALM      30.17S
La Salle       CLOUDY    54  52  92 CALM      30.16R
Moline         CLOUDY    55  51  86 CALM      30.14R
Mount Sterling CLOUDY    54  50  85 SE3       30.14R
Mount Vernon   CLOUDY    58  50  75 E3        30.15R
Pittsfield     CLOUDY    55  53  94 CALM      30.15R
Quincy         CLOUDY    54  49  83 E6        30.12S
Rockford       CLOUDY    55  51  86 CALM      30.18S FOG
$$


CITY           SKY/WX    TMP DP  RH WIND       PRES   REMARKS
Burlington     CLOUDY    54  52  93 S3        30.14R
Cedar Rapids   CLOUDY    54  53  97 S5        30.13R
Des Moines     CLEAR     54  52  93 E3        30.07F
Kirksville     CLOUDY    53  51  93 E6        30.11F
Ottumwa        FOG       49  49 100 E6        30.10F VSB 1/4
St Louis       CLOUDY    59  46  62 SE7       30.14R
$$


CITY           SKY/WX    TMP DP  RH WIND       PRES   REMARKS
Terre Haute    CLOUDY    54  52  93 CALM      30.18R
Evansville     CLOUDY    56  50  80 CALM      30.18R
Indianapolis   CLOUDY    58  45  62 CALM      30.19R
Lafayette      CLOUDY    57  50  77 CALM      30.18R
Madison        CLOUDY    55  54  96 CALM      30.14R
Milwaukee      CLOUDY    56  54  93 W3        30.15R
$$






USA.gov is the U.S. government's official web portal to all federal, state and local government web resources and services.